Starlink 33639

operational
NORAD ID: 63481 Int'l Des: 2025-070 Owner: SPXS Country: US Constellation: starlink
LEOCIRCULAR

Starlink 33639について

説明を読み込み中...

リアルタイム位置

3D地球を読み込み中...

次回通過

高度履歴

Altitude vs Time

uPlot chart will show altitude changes over time

軌道要素

1 63481U 25070X 26061.02619769 .00023739 00000-0 86883-3 0 9991
2 63481 43.0022 299.6566 0001495 271.5294 88.5387 15.27601048 51848
Epoch: Mar 2, 2026 • Age: 27 hours

現在のステータス

高度 494.4 km
速度 7.62 km/s
衛星直下点 -41.23°S, 20.94°W
打ち上げ日 Apr 6, 2025
運用期間 0.9 years
タイプ internet

技術仕様

分類 Payload
質量 575.00 kg
乾燥質量 530.00 kg
総質量 575.00 kg
長さ 0.30 m
直径 4.10 m
スパン 29.00 m
形状 Box + pan
製造者 SPXS
バスタイプ Starlink V2MO
フェーズステータス In Orbit
所有者/国 SPXS/US

大規模コンステレーション

Loading constellations...